Probability
0 0 0 0 0 0 0 0 0 0 0 1 1 2 2 2 1 1 1 3 9 17 22 22 22 24 24 24 24 22 17 13 12 11 9 7 7 7 9 9 9 8 6 4 1 1 3 5 5
0 0 0 0 0 0 0 0 0 0 1 2 3 4 4 3 2 2 2 4 10 17 22 23 24 24 23 22 22 19 15 12 11 11 11 9 8 7 8 8 8 8 7 6 3 3 5 7 7
0 0 0 0 0 0 0 0 0 0 1 2 3 4 5 4 3 3 5 7 11 16 19 22 24 24 23 20 18 16 14 12 11 12 12 11 10 9 8 7 7 6 6 5 4 4 6 8 9
0 0 0 0 0 0 0 0 0 0 0 1 1 3 5 5 4 6 10 12 13 14 16 19 22 22 21 19 16 16 15 13 12 13 14 14 13 11 10 8 6 4 4 4 4 4 6 7 8
0 0 0 0 0 0 0 0 0 0 0 0 1 2 4 6 8 11 15 15 13 14 15 17 19 20 19 19 18 17 16 15 14 14 15 15 15 13 10 8 7 5 4 4 4 4 5 7 7
0 0 0 0 0 0 0 0 0 0 1 1 1 3 6 9 12 15 18 17 14 15 16 17 18 18 19 20 19 18 17 15 14 14 15 15 14 11 9 7 6 6 5 5 5 5 5 7 8
0 0 0 0 0 0 0 0 0 0 1 1 2 4 7 11 16 19 20 19 17 17 18 18 18 17 18 18 18 17 15 13 11 11 12 11 9 8 6 5 5 5 6 6 6 5 4 5 7
0 0 0 0 0 0 0 0 0 1 2 3 4 5 7 12 19 21 21 22 21 19 19 20 19 16 15 15 14 14 13 9 7 7 7 7 6 4 4 4 4 5 6 6 7 6 4 4 5
0 0 0 0 0 0 0 0 0 1 3 4 4 5 9 17 23 22 21 22 21 19 18 20 20 17 14 12 12 12 11 7 4 3 5 6 4 2 2 3 4 4 4 5 7 7 6 5 5
0 0 0 0 0 0 0 0 0 1 3 4 4 6 13 21 24 23 21 21 19 18 19 20 21 17 13 10 9 9 8 5 3 2 3 4 2 0 0 2 3 3 3 3 6 7 6 6 7
0 0 0 0 0 0 0 0 0 0 2 3 5 10 17 23 24 23 21 20 19 19 20 19 17 15 11 8 7 7 6 4 1 0 1 1 0 0 0 1 1 1 1 1 2 3 2 4 6
0 0 0 0 0 0 0 0 0 1 2 3 6 13 21 24 23 20 19 20 20 20 20 17 13 11 9 7 6 5 5 3 1 0 0 0 0 0 0 0 0 0 0 0 1 1 0 1 2
0 0 0 0 0 0 0 0 0 1 3 6 9 15 22 24 19 14 14 17 19 20 19 15 10 8 6 5 5 4 3 2 1 1 1 0 0 0 0 0 0 0 0 1 1 2 1 1 1
0 0 1 1 1 1 0 0 0 1 4 8 11 15 21 23 14 8 9 12 14 16 15 12 8 6 5 4 3 2 2 1 1 1 1 1 0 0 0 0 0 0 0 1 2 2 2 2 2
0 0 1 2 2 2 1 0 0 1 3 6 10 13 17 18 12 8 7 9 11 12 11 9 7 6 5 4 2 2 2 1 1 1 1 1 0 0 0 0 0 0 0 1 1 1 3 3 3
0 0 1 2 3 2 1 0 0 0 1 3 7 10 12 11 9 8 7 8 10 9 9 9 8 7 5 4 3 2 1 2 1 0 0 0 0 0 0 0 0 0 0 0 0 1 2 3 3
0 0 1 2 2 2 1 0 0 0 1 2 5 8 9 8 7 7 8 9 10 10 9 10 10 8 5 4 2 1 1 1 1 0 0 0 0 0 0 0 0 0 1 2 1 1 2 3 3
0 0 0 1 1 1 0 0 0 0 0 1 2 5 8 7 5 6 9 11 11 11 11 11 9 7 4 3 2 0 0 1 1 1 1 1 1 1 1 1 0 1 2 3 2 2 2 2 2
0 0 0 0 0 0 0 0 0 0 0 1 2 3 5 5 5 7 10 12 12 12 11 10 8 5 3 3 2 1 1 2 2 2 2 2 2 2 2 2 1 1 3 3 2 2 1 1 1
0 0 0 0 0 0 0 0 0 0 1 3 4 4 5 5 6 8 12 13 12 10 10 9 8 5 3 3 3 3 3 3 3 3 3 3 3 3 3 3 3 3 3 3 2 1 1 1 0
0 0 0 0 0 0 0 0 0 0 2 5 6 5 6 7 7 9 11 12 10 8 8 9 8 7 5 4 4 4 4 3 3 3 3 3 3 3 3 3 3 3 4 3 1 1 1 2 1
0 0 0 0 0 0 0 0 0 0 1 4 5 4 5 7 7 6 8 9 8 7 7 7 7 7 6 4 3 3 3 2 2 2 2 3 3 3 3 3 4 4 3 2 1 0 1 2 1
0 0 0 0 0 0 0 0 0 0 1 2 2 2 3 4 3 3 4 6 7 6 5 5 5 5 5 3 1 1 1 1 1 1 1 1 2 2 3 3 4 3 2 1 0 0 0 1 1
0 0 0 0 0 0 0 0 0 0 1 1 1 1 1 1 1 1 2 4 5 4 4 4 4 4 5 4 2 1 0 0 0 0 0 0 1 1 1 2 2 1 0 0 0 0 0 0 1
0 0 0 0 0 0 0 0 0 1 2 1 0 0 0 0 1 0 1 2 3 3 3 4 4 4 5 5 5 3 1 0 0 0 0 0 0 0 0 1 1 0 0 0 0 0 0 0 0
0 0 0 0 0 0 0 0 1 2 2 1 0 0 0 1 1 0 0 2 3 3 3 4 5 5 6 7 8 5 2 0 0 0 0 0 0 0 0 0 0 0 0 0 0 0 0 0 0
0 0 0 0 0 0 0 0 1 2 2 1 0 0 1 1 1 0 0 1 2 3 4 5 6 6 6 8 8 6 2 1 1 1 0 0 0 0 0 0 0 0 0 0 0 0 0 0 0
0 0 0 0 0 0 0 0 1 1 1 0 0 0 1 1 1 1 1 1 1 3 5 6 6 6 6 7 7 5 2 1 1 1 1 0 0 0 0 0 0 0 0 0 0 0 0 0 0
0 0 0 0 0 0 0 0 0 0 0 0 0 0 0 1 1 2 2 2 1 2 5 6 6 6 6 6 6 4 3 2 2 1 1 1 0 0 0 0 0 0 0 0 0 0 0 1 1
0 0 0 0 0 0 0 0 0 0 0 0 0 0 0 0 1 2 3 2 1 3 5 6 6 5 6 6 6 4 3 3 2 1 0 1 0 1 1 1 0 0 0 0 0 0 0 1 0
Wind_Speed
1 2 2 2 5 5 1 3 2 2 2 1 1 3 4 3 2 2 0 6 8 8 7 9 11 11 11 11 11 10 11 11 11 11 11 12 12 11 11 10 10 10 10 10 10 9 9 8 8
1 2 3 4 5 2 3 3 2 2 2 0 2 3 3 1 2 3 2 5 8 8 6 7 11 10 10 10 11 10 10 10 10 10 11 11 11 11 11 10 10 10 9 9 9 9 8 8 8
1 2 4 5 3 3 3 2 2 2 1 1 2 3 2 1 2 3 3 8 8 7 5 7 11 10 10 10 10 10 10 10 10 10 10 10 10 10 10 10 10 9 9 8 9 8 8 7 7
2 4 5 5 1 4 4 3 2 2 2 2 2 2 1 1 2 4 8 10 9 6 5 7 11 10 9 9 9 9 9 10 10 9 9 9 9 9 9 9 9 8 8 8 8 7 7 7 6
4 4 5 2 3 4 4 4 2 1 1 1 2 1 0 3 4 8 9 9 9 6 4 5 10 9 9 9 8 8 9 9 9 9 9 8 7 7 8 8 8 7 7 7 7 7 6 6 6
4 5 4 1 4 4 4 2 1 1 1 1 2 2 1 1 5 7 8 7 8 7 5 4 8 9 8 8 8 8 7 8 8 8 7 7 7 6 7 7 7 6 6 6 6 6 6 5 5
4 4 3 2 3 4 2 1 1 1 0 1 2 2 1 1 3 7 7 6 6 6 5 3 4 5 7 7 7 7 7 7 8 7 7 6 6 6 7 6 6 6 6 5 5 5 4 4 4
4 5 1 2 3 4 2 1 1 1 1 1 3 4 4 4 6 6 6 6 5 4 3 3 3 3 3 3 6 6 7 7 7 7 7 6 6 5 5 5 4 5 5 5 4 4 4 3 3
4 5 2 4 4 4 1 2 2 0 2 1 0 2 2 10 10 8 6 4 4 4 2 3 3 2 2 2 4 5 6 6 6 5 6 5 2 2 1 3 3 4 4 4 3 3 3 3 2
4 3 6 5 4 3 2 2 2 0 1 1 1 2 6 11 10 9 8 7 6 5 3 2 3 2 2 2 2 2 2 2 2 2 3 3 2 1 2 2 2 3 2 2 2 1 1 1 0
4 6 5 4 4 3 2 2 1 2 2 5 5 5 9 10 8 8 8 7 7 6 5 3 3 2 2 2 2 1 1 2 2 2 2 2 2 1 1 1 1 1 1 1 2 2 1 1 1
3 5 4 4 2 2 3 2 1 3 6 5 5 9 11 11 10 9 8 7 6 6 5 4 3 3 2 2 2 2 1 2 2 2 2 2 2 1 1 1 1 1 1 1 1 1 1 1 1
3 4 3 3 3 3 2 2 2 4 5 2 6 8 9 9 8 6 6 6 6 6 5 4 4 3 3 2 2 2 2 2 2 2 2 3 2 2 1 1 1 1 1 1 1 1 1 1 1
3 3 4 3 3 2 2 3 1 5 1 4 5 6 7 8 8 7 6 6 6 5 5 4 5 4 3 3 2 2 1 2 2 2 2 3 2 2 2 1 1 1 1 1 1 1 1 1 1
1 2 4 3 1 2 2 3 3 4 3 4 5 5 6 6 7 8 8 7 7 6 5 5 5 5 4 3 3 2 2 2 2 2 2 3 2 2 2 2 1 1 1 1 1 1 1 1 1
2 2 2 4 1 1 3 4 6 1 3 3 4 5 5 5 5 5 6 6 6 6 5 5 5 5 4 3 3 2 2 2 1 1 1 2 3 3 2 2 1 1 1 1 1 1 1 1 1
3 0 3 5 2 0 2 4 6 1 3 3 3 4 4 3 3 3 4 5 6 6 6 5 4 4 4 3 2 2 2 1 1 1 1 2 2 3 2 2 1 2 1 1 1 1 1 1 1
3 2 3 4 3 1 2 5 6 2 3 4 3 3 3 4 5 4 4 4 4 4 5 4 4 3 3 2 2 2 2 1 1 1 1 2 2 2 3 2 2 2 2 1 1 1 1 1 1
3 3 5 7 5 1 4 5 6 3 2 3 4 4 4 4 3 3 3 4 4 4 4 4 4 4 4 2 2 2 1 0 0 1 1 1 2 2 2 2 2 2 2 1 2 1 1 1 1
3 3 4 5 4 2 3 5 4 3 4 5 5 4 4 3 2 3 3 4 4 4 4 4 4 4 4 3 2 2 2 1 1 1 1 1 2 2 2 2 2 2 2 1 1 2 1 1 1
4 5 5 4 3 2 1 5 4 3 1 2 3 3 3 5 5 4 4 4 4 4 4 4 3 3 3 3 3 3 2 2 1 1 1 1 1 1 1 2 2 2 2 2 2 2 3 2 0
5 6 5 3 0 3 0 3 7 3 3 3 3 4 5 4 4 4 4 4 4 4 4 3 3 3 3 4 4 4 3 2 1 1 1 1 1 1 1 2 2 2 2 2 1 1 2 2 1
6 2 3 2 2 1 1 2 7 2 3 5 4 5 5 5 5 5 5 5 4 3 4 3 3 3 3 3 4 4 3 2 1 2 2 1 1 1 2 2 2 2 1 1 1 1 2 2 2
3 3 4 4 3 2 3 3 7 3 5 4 3 3 3 4 5 4 3 3 3 3 3 3 3 3 3 3 3 4 4 3 3 3 2 1 1 1 1 2 2 2 1 1 1 1 2 1 2
3 4 3 3 2 5 2 3 8 5 3 3 3 3 4 4 5 5 5 4 4 4 3 3 4 2 2 3 3 3 4 4 4 3 2 2 1 1 1 1 1 1 1 1 1 2 1 1 2
3 7 6 4 4 4 2 5 6 3 2 1 1 1 3 4 4 5 5 5 5 4 4 3 3 2 2 2 2 2 3 2 2 2 2 2 1 1 1 2 1 1 1 2 2 1 1 1 1
4 2 4 5 1 1 5 5 6 1 2 2 1 1 2 3 5 5 5 5 5 5 4 4 4 3 2 2 2 2 2 2 2 2 2 1 1 1 2 2 2 1 1 2 2 1 1 1 1
5 6 4 4 3 3 4 4 4 4 3 1 0 1 2 3 4 4 4 4 4 4 3 3 4 3 2 2 2 2 2 2 2 2 2 2 1 1 2 2 2 1 1 1 2 1 1 1 1
2 3 4 3 4 4 3 6 4 5 4 3 2 2 3 3 4 4 3 3 3 3 4 3 3 3 2 2 2 2 2 2 2 2 2 2 2 2 2 2 2 2 1 1 2 1 1 1 0
4 5 6 4 3 3 3 7 3 2 2 2 2 1 2 2 3 4 4 4 4 4 4 3 3 3 3 3 3 2 2 2 2 2 1 1 2 1 2 2 2 2 2 1 1 1 1 1 1
Wind_Direction
176 111 105 71 56 49 343 277 265 311 313 324 85 120 134 145 176 220 313 137 132 139 151 155 154 149 143 136 131 128 126 129 130 133 135 137 140 139 138 137 135 135 133 132 132 131 129 126 126
138 132 66 59 78 55 291 269 280 249 224 38 49 78 89 70 78 114 127 139 132 139 144 155 154 150 145 141 137 135 133 135 136 138 138 139 141 143 144 144 142 139 137 135 135 135 132 130 132
155 85 80 71 96 171 241 260 253 289 265 56 55 54 95 134 141 156 155 137 128 137 142 160 153 151 148 144 143 142 141 142 142 142 142 141 143 145 148 149 149 147 143 139 138 136 134 130 130
98 52 57 71 217 229 229 260 278 331 342 21 91 69 71 57 161 150 132 134 133 136 142 160 152 153 151 149 148 148 147 146 146 145 146 146 148 149 153 156 157 155 152 148 146 142 140 137 133
64 75 57 24 271 262 258 264 227 236 287 26 85 118 28 5 93 119 131 137 138 136 138 155 153 154 155 154 151 151 152 153 150 148 149 150 154 154 157 164 164 161 157 154 153 150 146 143 142
60 69 79 293 280 275 272 256 182 223 240 93 113 145 239 78 113 129 134 137 139 141 138 148 155 154 155 158 155 151 151 154 153 150 151 156 161 165 165 165 165 164 162 160 158 155 153 154 152
106 101 154 221 274 290 272 238 161 184 96 204 156 144 279 144 134 127 124 121 125 131 132 134 148 156 157 154 153 151 151 151 153 152 153 159 166 167 167 166 167 169 167 167 165 161 163 161 156
125 107 139 235 245 269 280 345 318 153 213 130 131 163 221 182 129 113 108 109 117 117 122 122 133 137 145 158 156 151 154 153 153 154 156 161 164 164 168 161 164 170 172 173 172 172 176 173 170
94 83 207 223 216 254 300 339 318 306 111 90 157 203 192 131 127 120 115 115 127 130 125 126 140 143 142 156 159 151 153 153 153 153 153 143 121 115 159 169 166 169 167 164 165 171 179 186 185
102 152 225 219 208 236 282 269 263 21 38 313 338 48 119 135 143 147 151 157 159 165 167 152 155 149 143 154 124 114 122 123 121 121 126 112 110 119 127 123 146 153 151 149 141 136 126 128 101
160 197 234 250 231 230 248 273 238 152 260 233 210 171 148 151 158 164 168 169 173 169 167 161 160 145 137 123 117 101 100 104 106 113 112 110 110 111 91 77 59 49 55 46 54 52 50 70 97
189 237 231 259 249 232 233 234 227 200 233 230 190 157 159 164 174 178 177 173 166 165 169 158 153 154 156 141 134 124 125 129 136 141 129 126 126 127 116 101 94 78 71 82 73 75 73 90 125
224 260 253 243 262 234 227 228 213 252 255 164 139 146 162 171 180 182 172 169 166 172 169 164 157 167 166 151 157 148 146 149 155 148 149 146 145 152 149 139 122 133 132 134 122 103 99 115 121
234 255 283 277 261 249 209 265 213 265 212 131 145 160 173 178 179 175 171 174 176 178 174 170 164 169 165 164 165 158 152 146 146 158 165 159 159 159 149 147 158 155 154 156 148 149 146 155 152
260 302 320 293 251 227 140 312 251 249 129 149 169 176 178 183 178 183 184 180 183 181 174 175 171 169 174 174 173 159 152 149 157 167 169 166 165 165 158 165 174 176 151 141 120 115 122 127 128
20 46 312 292 286 256 143 256 276 234 141 184 193 188 186 187 183 184 180 183 179 170 170 179 175 170 175 169 159 147 144 146 160 166 167 170 167 162 158 164 180 169 149 139 144 143 127 113 115
26 346 267 294 300 91 142 251 275 262 170 198 207 199 189 185 192 188 178 181 179 174 171 175 169 167 168 156 142 130 123 129 146 150 156 165 162 158 151 161 168 156 140 139 165 128 141 143 144
235 246 269 272 290 11 266 259 279 260 190 202 210 210 186 188 203 192 171 167 165 162 160 163 159 154 139 128 110 95 90 96 119 142 154 142 146 150 142 149 149 141 128 127 133 138 114 132 149
196 214 262 269 275 251 250 266 277 266 216 210 209 209 196 202 195 156 146 141 135 134 143 155 154 151 141 135 139 132 146 149 127 146 141 138 130 140 138 141 136 132 134 150 143 124 110 87 100
204 233 260 283 288 226 253 276 275 249 213 204 203 207 198 178 148 151 147 149 151 150 144 145 150 150 158 156 152 142 133 136 119 91 99 120 136 149 149 144 139 136 132 130 144 138 134 102 94
229 211 225 240 314 348 315 311 293 287 263 203 193 194 191 179 177 170 161 161 156 152 153 152 150 146 146 131 113 95 82 74 67 60 77 97 129 134 135 137 136 136 140 165 180 166 158 152 116
252 233 205 212 233 294 350 278 285 274 291 244 217 199 195 185 172 171 166 162 168 170 153 142 146 139 134 135 137 140 141 147 173 152 119 82 91 106 105 124 142 146 146 164 185 163 159 150 162
221 220 160 176 160 313 320 210 282 307 274 263 244 222 205 191 177 173 170 169 165 153 143 139 133 128 129 139 148 144 135 136 123 104 94 78 61 77 105 137 136 136 144 165 158 145 151 157 164
164 63 53 55 75 284 240 190 275 243 236 260 249 230 207 184 169 161 149 131 126 122 124 129 131 127 133 138 142 148 147 142 131 123 118 94 65 59 74 109 116 133 142 158 162 160 158 168 165
103 94 30 354 359 254 247 204 251 256 238 236 242 227 197 168 159 159 155 149 148 146 143 141 141 140 141 144 148 153 153 154 154 155 157 154 139 78 47 98 118 128 140 139 131 130 141 161 166
172 146 162 201 227 276 289 237 257 275 278 263 213 183 153 150 157 170 175 168 166 163 157 151 149 142 142 146 153 150 149 151 156 157 155 164 160 163 151 113 113 113 128 136 129 122 140 144 158
139 167 164 135 161 268 274 279 298 303 346 12 40 91 152 161 158 167 168 166 165 167 168 162 151 135 142 151 142 135 145 151 157 150 143 158 160 150 134 120 112 104 114 131 132 127 147 144 161
143 145 107 122 158 251 284 270 259 275 279 307 31 186 178 155 151 152 161 166 164 161 148 138 139 145 157 149 152 145 147 150 151 146 149 157 159 134 135 135 134 121 119 136 138 128 135 125 138
104 104 116 131 162 170 252 267 233 220 212 208 220 197 177 171 167 159 149 147 139 130 130 130 133 126 134 140 134 122 126 124 123 140 161 167 159 151 156 163 154 145 152 150 145 145 138 130 126
161 165 147 157 215 185 202 265 285 193 190 178 186 165 152 149 149 142 140 138 135 137 139 141 144 148 156 147 136 132 122 114 114 120 133 142 145 150 153 152 153 161 166 159 151 157 146 155 186